FENGYUN 1C DEB

Satellite information

Favourite Embed

Satellite Type and Status

DEBRISIN ORBIT

Key statistics

Satellite FENGYUN 1C DEB at a glance.

Uptime

9715

Days in orbit

Revolutions

≈ 14.0

Per day

Orbit

SSO

Sun Synchronous Orbit

Inclination

99.1

Latest

Satellite identification and parameters

Extended collection of information and parameters for FENGYUN 1C DEB.

Object identification

Identified? True

Debris? True

Object name: FENGYUN 1C DEB

International designator: 1999-025CXZ

Object number (NORAD): 32332

Object ID (CCSDS): 32332

Country: PEOPLES REPUBLIC OF CHINA (PRC)

Current information (Y/N): Y

RCS size: SMALL

Orbital parameters

Period: 103.068 minutes

Inclination: 99.1327 deg

SMA: 7281.867 km

Apoapsis: 1111.27 km

Periapsis: 696.195 km

RAAN: 40.919 deg

Eccentricy: 0.02850061

Argument of periapsis: 312.4612 deg

Mean anomaly: 45.2771 deg

Mean motion: 13.97135848 rev/day

Mean motion (dot): 0.0000432 rev/day2

B* drag term: 0.0022136222 1/REarth

Two-line elements (TLE)

Creation date: Dec. 13, 2025, 4:32 a.m.

Reference frame: TEME

Reference center: EARTH

Epoch: Dec. 12, 2025, 8:54 p.m. UTC

TLE line 0: 0 FENGYUN 1C DEB

TLE line 1: 1 32332U 99025CXZ 25346.87141029 .00004320 00000-0 22136-2 0 9995

TLE line 2: 2 32332 99.1327 40.9190 0285006 312.4612 45.2771 13.97135848930387

Live tracking on map

Real-time ground track for satellite FENGYUN 1C DEB.

In-orbit conjunctions

A list of the most updated potential collisions computed for object FENGYUN 1C DEB.

Target Orbit TCA Probability of collision Miss distance Type
COSMOS 2180 LEO 2025-05-25 21:06:21 0.0001615109 136.0 (m) PAYLOAD
CZ-6A DEB SSO 2024-11-12 03:34:18 0.0006611213 186.0 (m) DEBRIS
SL-8 DEB * LEO 2024-09-25 14:58:52 0.006285188 108.0 (m) DEBRIS

Associated space launch

Chinese polar orbiting meteorological satellite

FENGYUN 1C DEB was lifted into orbit during the mission ‘Long March 4B | Feng Yun 1C’, on board a Long March 4B space rocket.

The launch took place on May 10, 1999, 1:33 a.m. from Launch Complex 7.

For more information about the launch, click the button.

Launch to space Long March 4B | Feng Yun 1C
Long March 4B | Feng Yun 1C

Agency: N/A

Status: Launch Successful

Launch date: May 10, 1999, 1:33 a.m. UTC

Rocket: Long March 4B

Launch pad: Launch Complex 7

Location: Taiyuan Satellite Launch Center, People's Republic of China

...

Latest news about this satellite

There are no fresh news available about this satellite. Check back as we update our databases every day.


Newsletter sign-up

Weekly statistics, charts and insights to help you stay on top of the space industry.